Regional Weather Roundup
Issued by NWS

Home | Current Version | Previous Version | Text Only | Print | Product List | Glossary On
Versions: 1 2 3 4 5 6 7 8 9 10 11 12 13 14 15 16 17 18 19 20 21 22 23 24 25 26 27 28 29 30 31 32 33 34 35 36 37 38 39 40 41 42 43 44 45 46 47 48 49 50
000
ASUS44 KBMX 020610
RWRAL

ALABAMA REGIONAL WEATHER ROUNDUP
NATIONAL WEATHER SERVICE BIRMINGHAM AL
100 AM CDT SUN AUG 02 2015

NOTE: "FAIR" INDICATES FEW OR NO CLOUDS BELOW 12,000 FEET
WITH NO SIGNIFICANT WEATHER AND/OR OBSTRUCTIONS TO VISIBILITY.

THE REMARK "TC" DENOTES TEMPERATURE IN DEGREES CELSIUS.

ALZ001>011-014-016>018-020-020700-
NORTH ALABAMA

CITY           SKY/WX    TMP DP  RH WIND       PRES   REMARKS
MUSCLE SHOALS  CLEAR     73  68  84 CALM      29.97F
6HR MIN TEMP:  71; 6HR MAX TEMP:  89;

HUNTSVILLE     CLEAR     73  66  78 CALM      29.97S
6HR MIN TEMP:  72; 6HR MAX TEMP:  90;

DECATUR        CLEAR     73  67  81 NE6       29.97S
6HR MIN TEMP:  71; 6HR MAX TEMP:  87;

HALEYVILLE     FAIR      68  67  96 CALM      30.01S
6HR MIN TEMP:  68; 6HR MAX TEMP:  88;

GADSDEN        CLEAR     68  59  73 CALM      29.95S
6HR MIN TEMP:  68; 6HR MAX TEMP:  90;

$$

ALZ012-013-022-023-030>036-040>044-020700-
WEST CENTRAL ALABAMA

CITY           SKY/WX    TMP DP  RH WIND       PRES   REMARKS
TUSCALOOSA     CLEAR     71  63  75 CALM      29.93S
6HR MIN TEMP:  71; 6HR MAX TEMP:  92;

$$

ALZ015-024>027-033>036-040>044-020700-
CENTRAL ALABAMA

CITY           SKY/WX    TMP DP  RH WIND       PRES   REMARKS
BIRMINGHAM     CLEAR     73  63  70 CALM      29.97S
6HR MIN TEMP:  72; 6HR MAX TEMP:  90;

MONTGOMERY     CLEAR     78  72  81 E5        29.90S
6HR MIN TEMP:  78; 6HR MAX TEMP:  92;

SHELBY CO ARPT CLEAR     74  63  68 CALM      29.95R
6HR MIN TEMP:  71; 6HR MAX TEMP:  91;

MAXWELL AFB    CLEAR     77  73  87 VRB1      29.90S
6HR MIN TEMP:  77; 6HR MAX TEMP:  90;

GREENVILLE     FAIR      78  71  79 CALM      29.90S
6HR MIN TEMP:  77; 6HR MAX TEMP:  92;

$$

ALZ019-021-028-029-037-038-045>048-020700-
EAST CENTRAL ALABAMA

CITY           SKY/WX    TMP DP  RH WIND       PRES   REMARKS
ANNISTON       CLEAR     72  60  66 CALM      29.95S
6HR MIN TEMP:  70; 6HR MAX TEMP:  90;

ALEXANDER CITY CLEAR     74  66  75 CALM      29.93F
6HR MIN TEMP:  74; 6HR MAX TEMP:  87;

AUBURN         CLEAR     73  70  88 N8        29.93F
6HR MIN TEMP:  73; 6HR MAX TEMP:  86;

$$

ALZ051>064-020700-
SOUTHWEST ALABAMA

CITY           SKY/WX    TMP DP  RH WIND       PRES   REMARKS
MOBILE         CLEAR     75  68  78 CALM      29.89F
6HR MIN TEMP:  75; 6HR MAX TEMP:  86;

BROOKLEY FIELD CLEAR     77  67  71 NW5       29.89F
6HR MIN TEMP:  77; 6HR MAX TEMP:  90;

EVERGREEN      CLEAR     75  70  84 CALM      29.90S
6HR MIN TEMP:  75; 6HR MAX TEMP:  91;

$$

ALZ049-050-065>069-020700-
SOUTHEAST ALABAMA

CITY           SKY/WX    TMP DP  RH WIND       PRES   REMARKS
DOTHAN         CLEAR     75  72  90 E5        29.91F
6HR MIN TEMP:  75; 6HR MAX TEMP:  84;

OZARK          CLEAR     76  73  89 NW3       29.86F
6HR MIN TEMP:  76; 6HR MAX TEMP:  83;

TROY           CLEAR     76  74  93 NE3       29.90F
6HR MIN TEMP:  76; 6HR MAX TEMP:  83; 6HR PCP:  0.57;

EUFAULA        FAIR      76  74  93 CALM      29.88F
6HR MIN TEMP:  76; 6HR MAX TEMP:  81; 6HR PCP:  0.10;

$$



USA.gov is the U.S. government's official web portal to all federal, state and local government web resources and services.